Time,TemperatureF,DewpointF,PressureIn,WindDirection,WindDirectionDegrees,WindSpeedMPH,WindSpeedGustMPH,Humidity,HourlyPrecipIn,Conditions,Clouds,dailyrainin,SoftwareType,DateUTC
2013-01-29 00:03:00,37.0,37.0,-100.00,ENE,60,0.0,2.0,99,0.00,,,-99.99,,2013-01-29 05:03:00,
2013-01-29 00:12:00,37.0,37.0,-100.00,NE,50,1.0,4.0,99,0.00,,,-99.99,,2013-01-29 05:12:00,
2013-01-29 00:21:00,37.0,37.0,-100.00,NE,50,1.0,4.0,99,0.00,,,-99.99,,2013-01-29 05:21:00,
2013-01-29 00:32:00,38.0,37.0,-100.00,ENE,75,0.0,3.0,99,0.00,,,-99.99,,2013-01-29 05:32:00,
2013-01-29 00:42:00,38.0,37.0,-100.00,ENE,65,0.0,2.0,99,0.00,,,-99.99,,2013-01-29 05:42:00,
2013-01-29 00:52:00,38.0,37.0,-100.00,ENE,65,0.0,2.0,99,0.00,,,-99.99,,2013-01-29 05:52:00,
2013-01-29 01:02:00,38.0,38.0,-100.00,East,85,0.0,3.0,99,0.00,,,-99.99,,2013-01-29 06:02:00,
2013-01-29 01:11:00,38.0,37.0,-100.00,ESE,110,0.0,2.0,99,0.00,,,-99.99,,2013-01-29 06:11:00,
2013-01-29 01:21:00,38.0,38.0,-100.00,ENE,70,0.0,2.0,99,0.00,,,-99.99,,2013-01-29 06:21:00,
2013-01-29 01:32:00,38.0,38.0,-100.00,ENE,70,0.0,2.0,99,0.00,,,-99.99,,2013-01-29 06:32:00,
2013-01-29 01:42:00,38.0,38.0,-100.00,SSE,150,1.0,2.0,99,0.00,,,-99.99,,2013-01-29 06:42:00,
2013-01-29 01:52:00,38.0,38.0,-100.00,ESE,115,0.0,2.0,99,0.00,,,-99.99,,2013-01-29 06:52:00,
2013-01-29 02:02:00,38.0,38.0,-100.00,ESE,115,0.0,2.0,99,0.00,,,-99.99,,2013-01-29 07:02:00,
2013-01-29 02:11:00,38.0,38.0,-100.00,ESE,105,0.0,3.0,99,0.00,,,-99.99,,2013-01-29 07:11:00,
2013-01-29 02:21:00,38.0,38.0,-100.00,SE,130,1.0,2.0,99,0.00,,,-99.99,,2013-01-29 07:21:00,
2013-01-29 02:32:00,38.0,38.0,-100.00,SE,130,1.0,2.0,99,0.00,,,-99.99,,2013-01-29 07:32:00,
2013-01-29 02:42:00,38.0,38.0,-100.00,SE,135,1.0,2.0,99,0.00,,,-99.99,,2013-01-29 07:42:00,
2013-01-29 02:52:00,39.0,38.0,-100.00,SE,135,0.0,1.0,99,0.00,,,-99.99,,2013-01-29 07:52:00,
2013-01-29 03:02:00,39.0,38.0,-100.00,SE,135,0.0,1.0,99,0.00,,,-99.99,,2013-01-29 08:02:00,
2013-01-29 03:11:00,38.0,38.0,-100.00,SW,225,0.0,1.0,99,0.00,,,-99.99,,2013-01-29 08:11:00,
2013-01-29 03:21:00,38.0,38.0,-100.00,SW,225,0.0,1.0,99,0.00,,,-99.99,,2013-01-29 08:21:00,
2013-01-29 03:32:00,38.0,38.0,-100.00,SW,225,0.0,1.0,99,0.00,,,-99.99,,2013-01-29 08:32:00,
2013-01-29 03:42:00,39.0,39.0,-100.00,ESE,105,0.0,2.0,99,0.00,,,-99.99,,2013-01-29 08:42:00,
2013-01-29 03:52:00,39.0,39.0,-100.00,North,355,0.0,2.0,99,0.00,,,-99.99,,2013-01-29 08:52:00,
2013-01-29 04:02:00,39.0,39.0,-100.00,North,355,0.0,2.0,99,0.00,,,-99.99,,2013-01-29 09:02:00,
2013-01-29 04:11:00,39.0,39.0,-100.00,North,355,0.0,0.0,99,0.00,,,-99.99,,2013-01-29 09:11:00,
2013-01-29 04:21:00,39.0,39.0,-100.00,North,355,0.0,0.0,99,0.00,,,-99.99,,2013-01-29 09:21:00,
2013-01-29 04:32:00,40.0,40.0,-100.00,SE,125,0.0,2.0,99,0.00,,,-99.99,,2013-01-29 09:32:00,
2013-01-29 04:42:00,39.0,39.0,-100.00,West,280,0.0,2.0,99,0.00,,,-99.99,,2013-01-29 09:42:00,
2013-01-29 04:51:00,39.0,39.0,-100.00,West,280,0.0,2.0,99,0.00,,,-99.99,,2013-01-29 09:51:00,
2013-01-29 05:01:00,39.0,39.0,-100.00,SW,235,0.0,3.0,99,0.00,,,-99.99,,2013-01-29 10:01:00,
2013-01-29 05:11:00,39.0,39.0,-100.00,SE,145,0.0,0.0,99,0.00,,,-99.99,,2013-01-29 10:11:00,
2013-01-29 05:21:00,40.0,39.0,-100.00,NNE,25,0.0,1.0,99,0.00,,,-99.99,,2013-01-29 10:21:00,
2013-01-29 05:32:00,40.0,39.0,-100.00,NNE,25,0.0,1.0,99,0.00,,,-99.99,,2013-01-29 10:32:00,
2013-01-29 05:41:00,40.0,40.0,-100.00,NE,40,1.0,3.0,99,0.00,,,-99.99,,2013-01-29 10:41:00,
2013-01-29 05:52:00,40.0,40.0,-100.00,NE,40,1.0,3.0,99,0.00,,,-99.99,,2013-01-29 10:52:00,
2013-01-29 06:02:00,40.0,40.0,-100.00,SE,130,0.0,3.0,99,0.00,,,-99.99,,2013-01-29 11:02:00,
2013-01-29 06:11:00,40.0,40.0,-100.00,WNW,285,0.0,2.0,99,0.00,,,-99.99,,2013-01-29 11:11:00,
2013-01-29 06:22:00,40.0,40.0,-100.00,West,260,0.0,3.0,99,0.00,,,-99.99,,2013-01-29 11:22:00,
2013-01-29 06:32:00,40.0,40.0,-100.00,West,260,0.0,3.0,99,0.00,,,-99.99,,2013-01-29 11:32:00,
2013-01-29 06:42:00,40.0,40.0,-100.00,South,180,0.0,2.0,99,0.00,,,-99.99,,2013-01-29 11:42:00,
2013-01-29 06:52:00,40.0,40.0,-100.00,SW,225,0.0,2.0,99,0.00,,,-99.99,,2013-01-29 11:52:00,
2013-01-29 07:03:00,40.0,40.0,-100.00,SW,225,0.0,2.0,99,0.00,,,-99.99,,2013-01-29 12:03:00,
2013-01-29 07:12:00,40.0,40.0,-100.00,ENE,70,0.0,1.0,99,0.00,,,-99.99,,2013-01-29 12:12:00,
2013-01-29 07:22:00,41.0,41.0,-100.00,East,85,1.0,4.0,99,0.00,,,-99.99,,2013-01-29 12:22:00,
2013-01-29 07:33:00,41.0,41.0,-100.00,East,85,1.0,4.0,99,0.00,,,-99.99,,2013-01-29 12:33:00,
2013-01-29 07:43:00,41.0,41.0,-100.00,ENE,60,2.0,6.0,99,0.00,,,-99.99,,2013-01-29 12:43:00,
2013-01-29 07:52:00,40.0,40.0,-100.00,SSE,150,0.0,1.0,99,0.00,,,-99.99,,2013-01-29 12:52:00,
2013-01-29 08:02:00,40.0,40.0,-100.00,SSE,150,0.0,1.0,99,0.00,,,-99.99,,2013-01-29 13:02:00,
2013-01-29 08:12:00,40.0,40.0,-100.00,WSW,250,0.0,2.0,99,0.00,,,-99.99,,2013-01-29 13:12:00,
2013-01-29 08:22:00,40.0,40.0,-100.00,WSW,245,0.0,1.0,99,0.00,,,-99.99,,2013-01-29 13:22:00,
2013-01-29 08:32:00,40.0,40.0,-100.00,WSW,245,0.0,1.0,99,0.00,,,-99.99,,2013-01-29 13:32:00,
2013-01-29 08:42:00,41.0,41.0,-100.00,ENE,60,1.0,2.0,99,0.00,,,-99.99,,2013-01-29 13:42:00,
2013-01-29 08:52:00,41.0,41.0,-100.00,SE,125,0.0,3.0,99,0.00,,,-99.99,,2013-01-29 13:52:00,
2013-01-29 09:02:00,41.0,41.0,-100.00,SE,125,0.0,3.0,99,0.00,,,-99.99,,2013-01-29 14:02:00,
2013-01-29 09:12:00,41.0,41.0,-100.00,ESE,115,0.0,1.0,99,0.00,,,-99.99,,2013-01-29 14:12:00,
2013-01-29 09:22:00,42.0,42.0,-100.00,SW,215,0.0,0.0,99,0.00,,,-99.99,,2013-01-29 14:22:00,
2013-01-29 09:33:00,42.0,42.0,-100.00,SW,215,0.0,0.0,99,0.00,,,-99.99,,2013-01-29 14:33:00,
2013-01-29 09:43:00,42.0,42.0,-100.00,WSW,240,0.0,0.0,99,0.00,,,-99.99,,2013-01-29 14:43:00,
2013-01-29 09:52:00,42.0,42.0,-100.00,SW,220,0.0,0.0,99,0.00,,,-99.99,,2013-01-29 14:52:00,
2013-01-29 10:02:00,42.0,42.0,-100.00,SW,220,0.0,0.0,99,0.00,,,-99.99,,2013-01-29 15:02:00,
2013-01-29 10:12:00,42.0,42.0,-100.00,WSW,245,0.0,1.0,99,0.00,,,-99.99,,2013-01-29 15:12:00,
2013-01-29 10:22:00,42.0,42.0,-100.00,South,175,1.0,2.0,99,0.00,,,-99.99,,2013-01-29 15:22:00,
2013-01-29 10:33:00,42.0,42.0,-100.00,South,175,1.0,2.0,99,0.00,,,-99.99,,2013-01-29 15:33:00,
2013-01-29 10:43:00,43.0,42.0,-100.00,SW,215,0.0,0.0,99,0.00,,,-99.99,,2013-01-29 15:43:00,
2013-01-29 10:53:00,43.0,43.0,-100.00,South,180,0.0,0.0,99,0.00,,,-99.99,,2013-01-29 15:53:00,
2013-01-29 11:03:00,43.0,43.0,-100.00,South,180,0.0,0.0,99,0.00,,,-99.99,,2013-01-29 16:03:00,
2013-01-29 11:12:00,44.0,44.0,-100.00,North,10,1.0,4.0,99,0.00,,,-99.99,,2013-01-29 16:12:00,
2013-01-29 11:23:00,44.0,44.0,-100.00,ESE,115,0.0,2.0,99,0.00,,,-99.99,,2013-01-29 16:23:00,
2013-01-29 11:32:00,44.0,44.0,-100.00,ESE,115,0.0,2.0,99,0.00,,,-99.99,,2013-01-29 16:32:00,
2013-01-29 11:43:00,47.0,47.0,-100.00,SE,135,0.0,1.0,99,0.00,,,-99.99,,2013-01-29 16:43:00,
2013-01-29 11:52:00,47.0,47.0,-100.00,SE,135,0.0,1.0,99,0.00,,,-99.99,,2013-01-29 16:52:00,
2013-01-29 12:03:00,49.0,48.0,-100.00,South,180,0.0,2.0,99,0.00,,,-99.99,,2013-01-29 17:03:00,
2013-01-29 12:12:00,50.0,49.0,-100.00,SSE,165,1.0,1.0,99,0.00,,,-99.99,,2013-01-29 17:12:00,
2013-01-29 12:22:00,50.0,49.0,-100.00,SSE,165,1.0,1.0,99,0.00,,,-99.99,,2013-01-29 17:22:00,
2013-01-29 12:33:00,51.0,51.0,-100.00,SE,140,1.0,2.0,99,0.00,,,-99.99,,2013-01-29 17:33:00,
2013-01-29 12:42:00,52.0,52.0,-100.00,ENE,75,0.0,2.0,99,0.00,,,-99.99,,2013-01-29 17:42:00,
2013-01-29 12:52:00,54.0,54.0,-100.00,North,355,1.0,2.0,99,0.00,,,-99.99,,2013-01-29 17:52:00,
2013-01-29 13:04:00,54.0,54.0,-100.00,North,355,1.0,2.0,99,0.00,,,-99.99,,2013-01-29 18:04:00,
2013-01-29 13:12:00,55.0,55.0,-100.00,NE,40,1.0,3.0,99,0.00,,,-99.99,,2013-01-29 18:12:00,
2013-01-29 13:22:00,56.0,56.0,-100.00,NE,55,1.0,3.0,99,0.00,,,-99.99,,2013-01-29 18:22:00,
2013-01-29 13:33:00,56.0,56.0,-100.00,NE,55,1.0,3.0,99,0.00,,,-99.99,,2013-01-29 18:33:00,
2013-01-29 13:42:00,58.0,57.0,-100.00,NNW,345,1.0,2.0,99,0.00,,,-99.99,,2013-01-29 18:42:00,
2013-01-29 13:52:00,58.0,58.0,-100.00,SSW,210,0.0,2.0,99,0.00,,,-99.99,,2013-01-29 18:52:00,
2013-01-29 14:03:00,58.0,58.0,-100.00,SSW,210,0.0,2.0,99,0.00,,,-99.99,,2013-01-29 19:03:00,
2013-01-29 14:12:00,60.0,59.0,-100.00,SE,145,0.0,1.0,98,0.00,,,-99.99,,2013-01-29 19:12:00,
2013-01-29 14:22:00,60.0,59.0,-100.00,WSW,240,0.0,3.0,96,0.00,,,-99.99,,2013-01-29 19:22:00,
2013-01-29 14:32:00,60.0,59.0,-100.00,WSW,240,0.0,3.0,96,0.00,,,-99.99,,2013-01-29 19:32:00,
2013-01-29 14:42:00,62.0,60.0,-100.00,South,175,0.0,4.0,92,0.00,,,-99.99,,2013-01-29 19:42:00,
2013-01-29 14:52:00,62.0,58.0,-100.00,South,185,0.0,3.0,90,0.00,,,-99.99,,2013-01-29 19:52:00,
2013-01-29 15:03:00,62.0,58.0,-100.00,South,185,0.0,3.0,90,0.00,,,-99.99,,2013-01-29 20:03:00,
2013-01-29 15:12:00,62.0,59.0,-100.00,SW,235,0.0,2.0,89,0.00,,,-99.99,,2013-01-29 20:12:00,
2013-01-29 15:22:00,61.0,58.0,-100.00,SE,140,0.0,1.0,89,0.00,,,-99.99,,2013-01-29 20:22:00,
2013-01-29 15:33:00,61.0,58.0,-100.00,SE,140,0.0,1.0,89,0.00,,,-99.99,,2013-01-29 20:33:00,
2013-01-29 15:42:00,62.0,59.0,-100.00,WNW,290,0.0,2.0,89,0.00,,,-99.99,,2013-01-29 20:42:00,
2013-01-29 15:53:00,63.0,60.0,-100.00,SE,140,0.0,2.0,88,0.00,,,-99.99,,2013-01-29 20:53:00,
2013-01-29 16:03:00,63.0,60.0,-100.00,SE,140,0.0,2.0,88,0.00,,,-99.99,,2013-01-29 21:03:00,
2013-01-29 16:12:00,62.0,58.0,-100.00,SE,145,0.0,1.0,87,0.00,,,-99.99,,2013-01-29 21:12:00,
2013-01-29 16:22:00,63.0,58.0,-100.00,SSE,150,0.0,0.0,85,0.00,,,-99.99,,2013-01-29 21:22:00,
2013-01-29 16:33:00,63.0,58.0,-100.00,SSE,150,0.0,0.0,85,0.00,,,-99.99,,2013-01-29 21:33:00,
2013-01-29 16:42:00,63.0,58.0,-100.00,SSE,150,0.0,0.0,85,0.00,,,-99.99,,2013-01-29 21:42:00,
2013-01-29 16:52:00,62.0,58.0,-100.00,NW,305,0.0,1.0,86,0.00,,,-99.99,,2013-01-29 21:52:00,
2013-01-29 17:03:00,62.0,58.0,-100.00,NW,305,0.0,1.0,86,0.00,,,-99.99,,2013-01-29 22:03:00,
2013-01-29 17:12:00,60.0,56.0,-100.00,South,175,0.0,1.0,87,0.00,,,-99.99,,2013-01-29 22:12:00,
2013-01-29 17:22:00,60.0,57.0,-100.00,North,0,0.0,1.0,89,0.00,,,-99.99,,2013-01-29 22:22:00,
2013-01-29 17:33:00,60.0,57.0,-100.00,North,0,0.0,1.0,89,0.00,,,-99.99,,2013-01-29 22:33:00,
2013-01-29 17:42:00,59.0,56.0,-100.00,NW,305,0.0,2.0,90,0.00,,,-99.99,,2013-01-29 22:42:00,
2013-01-29 17:52:00,59.0,56.0,-100.00,NW,305,0.0,2.0,90,0.00,,,-99.99,,2013-01-29 22:52:00,
2013-01-29 18:02:00,58.0,56.0,-100.00,NNE,15,1.0,2.0,91,0.00,,,-99.99,,2013-01-29 23:02:00,
2013-01-29 18:12:00,58.0,55.0,-100.00,North,0,2.0,4.0,92,0.00,,,-99.99,,2013-01-29 23:12:00,
2013-01-29 18:23:00,55.0,54.0,-100.00,SSE,165,0.0,3.0,94,0.00,,,-99.99,,2013-01-29 23:23:00,
2013-01-29 18:33:00,55.0,54.0,-100.00,SSE,165,0.0,3.0,94,0.00,,,-99.99,,2013-01-29 23:33:00,
2013-01-29 18:42:00,55.0,53.0,-100.00,NNE,25,0.0,1.0,95,0.00,,,-99.99,,2013-01-29 23:42:00,
2013-01-29 18:52:00,54.0,53.0,-100.00,North,10,0.0,1.0,96,0.00,,,-99.99,,2013-01-29 23:52:00,
2013-01-29 19:03:00,54.0,53.0,-100.00,North,10,0.0,1.0,96,0.00,,,-99.99,,2013-01-30 00:03:00,
2013-01-29 19:12:00,53.0,52.0,-100.00,NNW,330,0.0,1.0,96,0.00,,,-99.99,,2013-01-30 00:12:00,
2013-01-29 19:22:00,53.0,52.0,-100.00,SSE,165,0.0,2.0,97,0.00,,,-99.99,,2013-01-30 00:22:00,
2013-01-29 19:32:00,53.0,52.0,-100.00,SSE,165,0.0,2.0,97,0.00,,,-99.99,,2013-01-30 00:32:00,
2013-01-29 19:42:00,52.0,51.0,-100.00,WSW,255,0.0,2.0,98,0.00,,,-99.99,,2013-01-30 00:42:00,
2013-01-29 19:52:00,52.0,51.0,-100.00,WSW,255,0.0,2.0,98,0.00,,,-99.99,,2013-01-30 00:52:00,
2013-01-29 20:02:00,51.0,50.0,-100.00,East,85,0.0,1.0,98,0.00,,,-99.99,,2013-01-30 01:02:00,
2013-01-29 20:12:00,51.0,50.0,-100.00,East,100,0.0,1.0,98,0.00,,,-99.99,,2013-01-30 01:12:00,
2013-01-29 20:22:00,50.0,50.0,-100.00,WSW,255,0.0,1.0,98,0.00,,,-99.99,,2013-01-30 01:22:00,
2013-01-29 20:32:00,50.0,50.0,-100.00,WSW,255,0.0,1.0,98,0.00,,,-99.99,,2013-01-30 01:32:00,
2013-01-29 20:42:00,49.0,49.0,-100.00,WSW,255,0.0,2.0,99,0.00,,,-99.99,,2013-01-30 01:42:00,
2013-01-29 20:52:00,49.0,49.0,-100.00,WSW,255,0.0,2.0,99,0.00,,,-99.99,,2013-01-30 01:52:00,
2013-01-29 21:02:00,48.0,48.0,-100.00,West,280,0.0,2.0,99,0.00,,,-99.99,,2013-01-30 02:02:00,
2013-01-29 21:12:00,49.0,49.0,-100.00,ENE,60,0.0,1.0,99,0.00,,,-99.99,,2013-01-30 02:12:00,
2013-01-29 21:22:00,48.0,48.0,-100.00,WSW,240,0.0,1.0,99,0.00,,,-99.99,,2013-01-30 02:22:00,
2013-01-29 21:33:00,48.0,48.0,-100.00,WSW,240,0.0,1.0,99,0.00,,,-99.99,,2013-01-30 02:33:00,
2013-01-29 21:42:00,47.0,47.0,-100.00,WNW,290,0.0,1.0,99,0.00,,,-99.99,,2013-01-30 02:42:00,
2013-01-29 21:52:00,47.0,46.0,-100.00,WNW,285,1.0,1.0,99,0.00,,,-99.99,,2013-01-30 02:52:00,
2013-01-29 22:03:00,47.0,46.0,-100.00,WNW,285,1.0,1.0,99,0.00,,,-99.99,,2013-01-30 03:03:00,
2013-01-29 22:12:00,46.0,46.0,-100.00,WSW,245,0.0,2.0,99,0.00,,,-99.99,,2013-01-30 03:12:00,
2013-01-29 22:22:00,46.0,45.0,-100.00,NE,50,0.0,1.0,99,0.00,,,-99.99,,2013-01-30 03:22:00,
2013-01-29 22:32:00,46.0,45.0,-100.00,NE,50,0.0,1.0,99,0.00,,,-99.99,,2013-01-30 03:32:00,
2013-01-29 22:42:00,45.0,45.0,-100.00,SW,225,0.0,0.0,99,0.00,,,-99.99,,2013-01-30 03:42:00,
2013-01-29 22:52:00,45.0,45.0,-100.00,SE,125,0.0,2.0,99,0.00,,,-99.99,,2013-01-30 03:52:00,
2013-01-29 23:02:00,45.0,45.0,-100.00,SE,125,0.0,2.0,99,0.00,,,-99.99,,2013-01-30 04:02:00,
2013-01-29 23:12:00,44.0,44.0,-100.00,WNW,300,0.0,1.0,99,0.00,,,-99.99,,2013-01-30 04:12:00,
2013-01-29 23:22:00,44.0,43.0,-100.00,West,260,0.0,1.0,99,0.00,,,-99.99,,2013-01-30 04:22:00,
2013-01-29 23:32:00,44.0,43.0,-100.00,West,260,0.0,1.0,99,0.00,,,-99.99,,2013-01-30 04:32:00,
2013-01-29 23:41:00,43.0,43.0,-100.00,WSW,240,0.0,1.0,99,0.00,,,-99.99,,2013-01-30 04:41:00,
2013-01-29 23:52:00,43.0,43.0,-100.00,WSW,240,0.0,1.0,99,0.00,,,-99.99,,2013-01-30 04:52:00,